Temp
11 10 10 10 10 9 9 9 9 9 9 9 9 10 10 10 10 10 11 12 12 12 12 13 13 13 13 12 12 12 12 12 13 14 15 16 17 17 17 17 17 17 17
10 9 9 9 9 8 8 8 8 8 8 9 9 9 9 9 9 10 11 11 12 12 12 11 11 11 12 12 12 12 12 12 12 12 14 15 16 17 17 17 17 17 17
9 9 9 8 8 8 8 8 8 8 8 8 8 8 8 8 9 10 10 10 11 11 11 11 10 10 11 11 12 12 12 12 12 12 12 13 15 16 17 17 17 17 17
8 8 8 8 7 7 7 7 6 6 7 7 8 8 9 9 9 9 9 8 8 9 9 9 10 10 10 10 10 10 11 12 12 12 12 12 13 14 16 17 17 16 17
7 7 7 7 6 6 6 5 5 5 5 5 7 8 9 8 8 8 7 8 8 8 8 9 9 9 8 8 8 8 9 9 10 12 12 12 13 14 14 16 16 17 16
7 7 6 6 6 5 5 4 5 5 4 5 6 7 7 7 8 7 5 6 6 7 7 7 7 7 7 5 6 6 7 7 8 9 10 11 12 13 13 14 16 16 17
6 6 5 5 5 4 4 4 4 4 4 4 5 6 7 7 7 5 5 5 5 5 6 5 5 5 5 4 4 4 5 6 7 8 8 9 10 12 12 13 14 15 15
5 5 5 4 4 4 4 3 3 3 3 3 3 2 1 5 5 5 5 4 4 4 5 5 4 3 2 2 2 3 3 4 5 6 7 7 8 10 11 12 12 13 15
4 4 4 4 4 4 3 3 3 3 3 3 3 2 0 0 2 4 3 3 3 3 4 4 2 2 1 1 1 1 2 2 3 5 5 6 7 7 8 11 10 11 13
4 4 3 3 3 3 3 3 3 3 3 2 3 3 3 2 -1 -1 1 1 1 2 2 3 1 1 0 -0 -0 1 1 1 2 3 4 4 5 6 7 10 11 9 11
3 3 3 3 2 2 2 2 2 2 2 2 2 2 2 2 1 -1 -2 -1 0 2 2 1 1 1 -0 -1 -0 0 1 0 1 1 2 3 3 4 4 5 6 8 10
3 3 2 2 2 2 2 2 2 2 2 2 2 1 1 1 0 -0 -1 -1 -1 0 1 2 1 0 0 -1 -0 -0 -0 -0 -0 0 1 1 2 2 3 4 5 7 9
3 2 2 2 1 2 2 2 2 2 1 1 1 1 0 0 1 1 0 -1 -2 -0 1 1 1 0 -1 -1 -1 -1 -1 -1 -1 -1 -1 -0 0 1 1 2 3 4 7
3 2 1 1 1 1 1 1 1 0 0 -1 -1 -1 -1 -1 -1 -1 -1 -1 -2 -1 -0 1 0 -1 -2 -2 -2 -1 -2 -1 -2 -2 -2 -1 -1 -1 -0 0 1 2 4
2 1 1 0 0 0 0 0 -0 -1 -1 -2 -2 -2 -2 -3 -2 -2 -2 -2 -2 -3 -2 -0 -1 -2 -2 -2 -3 -2 -2 -2 -2 -3 -3 -2 -2 -2 -1 -1 -0 0 1
1 1 0 -0 -0 -1 -1 -1 -2 -2 -2 -3 -4 -4 -4 -4 -4 -4 -4 -4 -4 -4 -4 -2 -2 -4 -3 -3 -3 -3 -2 -2 -2 -3 -3 -3 -3 -3 -2 -2 -2 -1 -0
1 0 -0 -1 -1 -2 -2 -2 -3 -3 -4 -4 -5 -5 -6 -5 -6 -5 -5 -5 -5 -5 -4 -3 -4 -5 -5 -6 -4 -3 -3 -2 -3 -3 -3 -3 -4 -3 -3 -3 -3 -2 -2
0 -1 -1 -2 -2 -3 -3 -3 -4 -4 -5 -5 -5 -6 -6 -7 -7 -7 -7 -7 -6 -6 -6 -5 -5 -7 -8 -8 -7 -5 -4 -3 -3 -4 -3 -3 -4 -4 -4 -4 -4 -3 -2
-1 -2 -2 -3 -3 -4 -4 -4 -4 -5 -5 -5 -6 -6 -7 -7 -7 -8 -8 -8 -7 -7 -7 -7 -7 -8 -9 -9 -8 -6 -6 -5 -5 -3 -3 -4 -4 -5 -4 -4 -4 -4 -3
-1 -2 -3 -3 -4 -4 -4 -4 -4 -5 -5 -5 -6 -6 -6 -7 -7 -7 -8 -8 -8 -8 -9 -9 -9 -9 -9 -9 -9 -9 -8 -6 -6 -4 -4 -5 -5 -5 -5 -5 -5 -5 -4
-2 -3 -3 -4 -4 -4 -5 -5 -5 -5 -5 -5 -6 -6 -7 -7 -7 -7 -7 -8 -8 -9 -9 -9 -9 -9 -9 -10 -10 -10 -9 -8 -6 -6 -4 -6 -5 -6 -6 -6 -5 -5 -5
-4 -4 -5 -4 -4 -5 -6 -5 -5 -5 -5 -5 -6 -6 -6 -6 -6 -6 -7 -7 -8 -8 -8 -9 -9 -9 -9 -10 -10 -10 -10 -10 -7 -8 -7 -6 -7 -6 -6 -6 -6 -6 -6
-5 -4 -5 -5 -5 -5 -5 -5 -5 -5 -5 -5 -6 -7 -7 -6 -6 -7 -7 -8 -8 -8 -8 -8 -8 -9 -9 -9 -9 -10 -10 -11 -10 -10 -9 -8 -8 -7 -7 -7 -7 -6 -7
-4 -4 -4 -5 -4 -5 -5 -5 -5 -5 -6 -5 -5 -6 -7 -7 -8 -8 -8 -8 -8 -8 -8 -8 -8 -8 -9 -9 -9 -10 -10 -10 -9 -9 -11 -12 -9 -9 -7 -7 -7 -8 -8
-3 -3 -4 -5 -4 -5 -5 -5 -4 -4 -5 -5 -6 -7 -8 -8 -9 -9 -9 -9 -8 -8 -8 -8 -8 -9 -9 -9 -9 -10 -10 -10 -10 -10 -10 -11 -10 -11 -8 -7 -8 -9 -9
-2 -3 -3 -4 -4 -5 -5 -4 -4 -4 -5 -6 -7 -8 -9 -9 -10 -10 -10 -9 -9 -9 -9 -9 -9 -9 -9 -10 -9 -9 -9 -10 -10 -11 -10 -10 -10 -10 -10 -8 -9 -10 -9
Height
817 819 819 818 818 817 816 814 811 810 808 806 805 804 802 800 798 795 794 791 791 790 789 789 787 786 783 782 780 778 776 774 774 775 775 775 777 780 782 785 787 789 792
816 816 817 817 816 815 814 812 810 808 806 805 803 802 800 798 796 793 792 791 790 788 788 788 788 785 782 779 777 775 773 770 769 769 769 770 771 773 775 777 780 783 786
816 815 816 815 815 814 812 811 809 807 805 803 801 799 797 796 794 792 791 791 788 788 787 786 786 785 782 777 774 771 769 767 766 764 764 764 765 766 768 770 772 776 780
816 816 816 815 814 812 811 810 808 807 805 803 799 796 795 795 794 793 791 789 789 789 787 786 785 784 781 777 771 768 766 763 761 760 758 759 759 759 761 763 765 768 771
815 814 814 814 814 814 812 811 810 808 805 802 798 795 795 795 794 793 791 789 790 789 788 786 784 782 779 780 772 768 764 760 758 755 754 753 754 754 755 755 757 760 763
816 816 815 815 815 814 813 811 809 808 806 803 799 796 796 795 793 792 793 791 789 788 790 785 784 783 778 779 775 768 765 760 758 754 750 748 749 749 747 748 748 750 753
815 815 814 814 815 813 814 813 811 808 804 802 798 796 796 794 793 794 793 792 789 788 788 788 784 782 780 778 774 768 765 759 759 753 749 747 744 742 741 741 742 741 741
814 816 816 816 815 814 812 813 812 811 809 807 804 804 804 797 793 796 795 794 792 789 787 790 787 784 782 779 775 770 764 759 758 752 749 747 744 742 741 737 733 726 724
815 815 817 817 817 816 815 816 813 812 811 811 807 809 812 811 801 796 797 797 794 791 791 792 788 786 784 780 775 770 765 761 758 754 751 748 744 740 738 733 730 726 724
815 817 815 818 819 816 818 816 816 814 813 815 811 812 813 813 811 807 799 799 796 795 795 793 790 789 785 781 777 771 766 762 759 754 750 746 742 737 733 728 726 725 718
817 817 817 818 815 815 816 815 817 817 816 817 815 814 814 813 812 811 810 804 796 796 797 795 793 789 786 782 776 770 766 762 758 754 750 744 738 734 730 724 722 722 720
816 817 818 818 815 816 816 816 816 817 817 819 818 817 815 814 812 811 811 808 806 797 797 796 793 790 788 783 777 771 767 764 759 754 748 742 739 733 727 720 718 718 717
815 817 817 817 816 818 816 815 816 818 817 819 819 818 815 814 813 811 811 810 807 801 798 796 794 792 789 783 778 774 770 765 759 755 750 745 739 735 729 721 716 712 713
814 816 815 816 817 817 815 815 817 819 818 820 819 817 816 815 814 814 812 810 807 804 801 798 796 793 789 783 780 775 771 766 761 757 751 748 743 737 730 722 715 711 706
814 813 816 815 816 818 816 816 817 818 819 820 819 817 817 816 816 815 813 812 811 809 803 799 798 795 789 785 781 776 772 769 764 759 754 750 745 739 732 725 717 710 704
811 812 814 815 814 816 817 819 816 819 821 821 821 818 819 818 818 815 814 813 812 810 808 804 802 798 792 786 781 776 772 770 765 760 756 751 746 741 734 729 721 713 705
810 810 813 815 814 815 817 819 817 821 823 823 822 820 821 821 820 817 815 813 811 810 808 805 804 800 794 787 781 776 771 769 765 762 758 753 748 743 738 732 724 717 711
810 807 812 814 814 816 817 818 819 823 825 823 824 822 822 824 822 821 818 815 813 812 811 808 805 801 796 790 784 778 773 769 767 763 759 757 753 748 742 736 729 722 716
806 808 811 812 814 816 818 818 823 825 825 824 825 823 824 825 824 823 820 818 816 815 813 811 808 804 799 791 783 779 775 771 768 765 760 758 754 751 745 739 733 727 719
805 807 809 811 814 816 818 819 824 825 825 826 825 825 824 825 825 824 822 821 819 816 815 813 810 806 801 795 789 783 775 772 770 766 762 759 755 752 747 742 736 730 723
805 807 807 809 813 816 818 820 824 825 825 826 826 826 824 825 825 826 824 822 820 818 816 814 811 807 802 796 791 788 784 775 772 769 763 760 755 752 748 743 738 732 726
805 807 808 809 811 816 819 821 823 824 825 826 826 826 825 825 825 825 825 824 822 819 817 814 811 807 804 801 797 791 786 779 775 773 766 762 758 754 752 748 744 738 732
804 804 809 811 812 815 818 821 823 824 826 826 826 826 825 824 825 826 826 824 822 821 818 816 812 809 807 804 800 794 788 784 783 779 770 765 760 756 755 752 747 741 735
802 803 809 812 813 815 817 821 822 824 826 826 826 826 825 824 825 826 826 823 822 820 818 816 813 811 810 807 803 798 793 787 783 781 775 770 765 760 757 754 750 745 739
800 799 808 811 813 814 817 819 821 823 824 825 826 826 826 824 826 826 825 824 823 821 819 816 815 813 810 807 803 798 792 788 785 783 779 775 771 763 758 757 752 747 742
799 798 806 810 812 813 815 817 819 821 822 824 826 826 827 825 826 826 826 824 823 822 819 817 815 812 809 806 802 799 796 792 790 786 784 780 775 770 763 759 757 750 745
Wind_Speed
10 8 6 4 9 11 13 13 14 16 16 16 16 16 18 18 18 18 16 16 16 19 17 17 16 17 17 17 18 19 20 21 23 21 23 25 29 32 34 35 37 38 37
11 9 4 8 10 13 13 14 16 17 17 17 18 18 19 19 16 15 17 18 18 14 12 15 16 17 18 17 18 19 20 20 22 24 22 25 25 31 34 38 39 40 40
11 8 6 10 12 13 11 14 16 17 17 19 22 23 20 19 17 18 16 17 16 12 12 14 18 20 19 18 19 21 22 21 21 22 25 27 27 26 35 37 41 43 42
12 8 8 12 12 11 12 16 17 19 19 21 25 22 18 18 16 16 21 23 24 18 18 18 17 19 22 21 19 21 20 19 19 20 22 25 25 31 29 37 40 43 44
12 9 10 12 11 11 14 16 16 17 21 24 23 18 16 15 17 20 21 21 21 21 21 20 19 16 16 20 21 23 24 26 20 15 16 20 23 22 29 32 40 42 46
10 8 11 11 12 12 15 16 18 17 21 25 21 13 13 20 22 24 23 24 24 20 21 22 18 18 18 20 23 25 25 26 26 23 19 13 13 20 21 26 38 42 46
10 10 10 12 13 13 15 17 18 20 23 25 17 12 8 4 23 24 25 27 29 20 23 18 23 20 21 22 23 26 25 26 25 24 22 21 17 12 16 16 19 44 50
10 11 12 12 12 10 15 16 18 19 19 24 13 5 4 5 20 17 21 28 26 26 28 15 23 22 24 23 22 24 26 26 25 24 24 22 21 17 20 23 21 23 44
11 11 11 11 12 11 14 14 16 17 17 18 21 9 3 3 11 10 17 26 27 28 24 16 22 24 25 24 22 22 22 24 25 24 23 22 21 20 21 24 27 31 33
11 11 11 10 10 11 13 13 14 15 15 15 10 14 12 9 3 4 11 22 28 23 21 15 24 26 26 28 20 21 20 23 23 24 24 23 23 24 23 26 28 26 29
10 11 10 9 10 11 12 12 13 14 15 14 16 13 9 7 10 3 3 15 25 18 17 21 23 30 27 26 26 22 21 23 24 24 24 26 28 28 26 27 27 25 24
10 9 9 9 11 12 12 11 12 13 12 12 11 13 16 6 2 1 2 5 12 13 9 27 23 22 24 26 23 24 22 24 24 25 28 29 28 30 30 30 29 24 17
10 9 8 10 11 11 11 10 11 12 12 13 12 13 17 18 18 8 5 5 3 6 7 16 26 21 21 27 24 23 22 23 26 26 27 29 30 30 29 30 30 27 17
10 10 9 10 9 11 11 9 10 14 12 13 12 12 14 17 17 16 15 8 3 2 7 12 23 24 26 23 22 21 25 22 25 25 26 28 29 30 31 32 31 29 26
13 13 11 10 9 11 12 9 10 12 11 11 12 11 13 14 13 15 16 17 9 3 2 12 17 23 31 20 22 22 19 21 25 27 26 27 29 30 32 33 33 32 31
15 14 12 10 10 11 9 6 11 10 9 13 13 15 14 12 11 13 14 13 13 9 2 16 18 24 29 21 20 21 16 22 19 25 29 28 30 31 32 34 35 34 34
15 13 11 10 11 13 12 10 13 12 13 14 15 17 16 16 15 16 14 15 13 18 8 9 16 23 27 26 23 21 22 16 23 23 22 28 30 32 32 34 35 36 35
15 13 12 12 12 14 13 14 15 13 14 16 16 17 19 17 18 18 19 18 15 16 12 10 14 22 25 28 24 22 24 18 19 31 20 23 27 30 31 33 34 35 36
18 15 15 15 15 16 16 16 14 15 14 14 15 17 17 18 20 19 21 22 17 13 16 12 13 18 21 31 31 24 24 23 18 30 16 26 20 28 29 31 34 34 35
22 19 18 17 16 15 14 15 13 13 13 13 13 17 17 15 16 16 18 21 21 19 16 13 12 15 20 27 22 25 30 28 18 31 15 26 19 24 30 30 33 35 35
20 18 17 15 14 13 13 14 13 14 13 13 14 15 17 14 13 10 13 16 19 22 18 14 14 15 20 25 27 23 20 27 5 35 27 23 26 22 30 34 32 34 34
21 21 17 16 16 16 15 14 14 14 15 12 9 12 15 12 15 9 8 12 13 16 18 18 17 15 21 22 29 23 21 18 6 30 31 21 29 22 29 31 31 32 32
22 22 19 15 15 15 16 16 15 14 12 10 13 8 13 13 12 13 9 9 11 12 13 14 16 18 21 24 26 25 26 21 7 28 30 15 33 22 17 30 32 29 33
22 22 20 17 15 14 14 11 8 9 9 8 7 7 10 13 14 9 8 11 11 14 14 13 16 17 17 19 19 22 22 24 5 18 38 7 28 24 14 29 32 29 32
21 20 19 21 15 13 13 9 6 12 15 8 6 8 10 12 12 10 11 12 14 15 14 13 14 14 16 17 18 22 25 22 10 8 34 15 25 26 14 26 31 31 28
22 20 22 22 14 14 13 9 8 18 12 10 8 8 9 10 10 9 12 14 15 15 15 13 16 19 20 20 21 20 23 13 16 7 26 19 21 24 9 15 27 34 29
Wind_Direction
102 82 70 28 23 34 22 11 9 2 1 353 350 351 336 334 332 329 325 333 331 324 329 328 329 328 323 320 316 307 296 285 274 272 262 253 247 240 235 233 230 225 225
105 90 72 33 48 40 17 13 7 5 1 360 356 343 340 343 350 344 336 332 328 335 360 10 1 355 344 324 317 313 304 295 282 271 270 256 254 247 239 234 231 228 225
98 83 53 47 56 41 10 8 9 10 8 1 347 349 352 351 351 1 25 45 28 28 4 344 350 350 348 352 341 327 299 297 294 282 270 263 256 255 247 240 232 230 226
98 81 51 51 54 38 12 16 16 12 10 354 349 355 5 14 28 32 41 37 37 23 22 17 354 348 346 343 357 354 349 302 294 295 279 272 267 259 253 246 240 231 227
98 79 55 53 52 34 25 26 23 23 9 355 354 2 19 51 53 46 44 38 26 21 17 10 1 348 2 6 14 10 8 7 2 319 293 276 270 267 270 251 243 237 229
87 81 68 55 59 43 30 30 29 34 22 0 352 14 66 64 53 45 32 20 17 16 11 17 22 7 0 9 11 11 8 5 1 6 9 1 292 271 290 272 237 239 235
81 87 81 65 67 51 39 30 33 30 29 15 2 4 51 26 42 39 22 14 10 20 22 22 20 10 0 6 9 9 7 7 4 5 1 356 342 288 288 305 267 238 234
90 77 74 70 63 49 52 38 37 34 38 34 18 358 355 341 5 24 16 14 18 22 24 31 33 24 16 10 1 6 10 9 5 6 5 356 346 306 292 281 295 291 230
88 81 76 75 66 51 57 46 41 39 38 39 46 48 7 335 331 353 4 4 11 19 27 41 31 22 12 9 4 10 10 11 10 8 3 358 351 340 325 311 297 295 278
85 90 82 81 76 62 58 49 43 46 40 38 39 43 51 40 20 332 341 355 1 19 25 33 27 19 11 10 10 10 15 14 12 11 9 3 357 349 332 303 301 311 300
90 83 85 84 83 71 71 56 52 45 45 43 35 28 30 64 50 74 315 332 350 1 27 33 20 14 10 4 11 11 20 17 15 13 11 8 6 0 350 337 330 324 289
106 96 95 77 76 75 70 62 61 51 47 47 43 35 23 37 32 82 273 309 317 328 20 21 19 10 7 4 6 8 15 16 15 14 15 14 11 8 2 351 346 343 313
121 108 96 84 77 81 73 79 73 57 60 61 52 42 46 36 24 358 334 310 301 318 345 8 6 12 8 6 3 7 10 12 13 14 16 16 16 14 9 2 357 358 356
133 125 107 99 96 98 77 82 87 70 72 61 52 50 48 39 37 32 24 334 321 272 331 359 3 20 5 6 2 3 13 14 14 15 17 19 19 19 16 13 9 7 3
141 128 122 114 109 100 91 93 95 75 75 56 50 51 50 42 37 35 32 31 14 335 316 344 356 6 0 5 2 3 10 16 21 21 19 20 20 20 20 18 15 14 10
144 144 136 131 118 115 93 90 97 80 79 64 55 59 49 37 38 40 26 23 26 13 340 338 1 6 356 11 11 19 15 18 17 21 24 23 23 22 21 20 19 18 15
150 150 143 140 119 123 105 92 93 82 80 72 63 61 57 46 51 42 34 25 32 23 342 339 5 1 5 12 18 23 24 7 21 8 15 23 22 21 21 20 20 20 19
152 145 135 132 111 115 108 91 89 92 80 72 65 65 57 52 54 46 43 37 32 24 9 339 356 2 2 9 15 19 19 18 0 12 17 11 19 20 20 20 21 20 19
148 144 136 121 114 108 111 96 92 90 87 77 64 65 63 48 46 47 44 42 40 34 36 23 1 359 359 8 12 20 16 15 6 11 22 15 15 21 20 20 20 20 19
154 151 146 138 130 126 120 119 115 107 91 84 67 56 57 53 38 32 39 39 41 49 42 28 15 5 5 4 9 3 356 9 3 10 18 16 21 20 23 20 20 17 19
164 158 148 141 143 137 127 122 118 102 94 84 72 56 51 54 42 35 33 35 34 43 41 30 24 18 13 9 6 354 354 353 349 10 12 13 17 27 27 24 18 17 17
159 153 143 134 129 134 129 121 116 105 100 84 94 64 48 61 48 46 51 45 35 31 33 29 23 17 13 12 7 0 355 1 359 4 2 10 12 28 27 23 17 16 16
156 149 148 142 131 138 141 133 128 121 112 97 90 67 43 56 67 62 59 49 43 34 21 24 30 31 20 18 9 7 4 357 10 14 6 357 6 11 25 24 18 17 15
160 152 154 157 139 143 154 152 146 150 153 110 85 63 48 53 46 34 33 43 44 36 23 27 35 31 19 15 12 15 15 11 75 6 14 344 359 350 23 18 18 17 15
163 155 165 172 153 141 157 160 149 153 149 123 94 71 52 60 51 48 56 49 43 39 40 42 39 30 24 19 15 16 14 18 5 1 13 0 356 345 342 15 6 13 13
167 159 155 165 158 147 169 168 140 155 151 144 129 94 67 66 64 56 58 43 32 28 34 38 33 32 29 26 22 26 17 16 13 359 5 2 1 0 339 353 358 14 17